Location: Easter Hill Village
(37.9235°N, 122.3444°W)
Time: 21:47:50
(UTC+00:00)

BREEZE-M DEB (TANK) - Pass Details

Date: 16 September 2019
Orbit: 327 x 16738 km, 49.5° (Epoch: 14 October)

Event Time Altitude Azimuth Distance (km) Brightness Sun altitude
Rises 12:58:28 0° 215° (SW) 4,911 7.2 -11.3°
Reaches altitude 10° 13:03:17 10° 206° (SSW) 2,628 5.9 -10.3°
Maximum altitude 13:07:30 27° 147° (SSE) 964 4.3 -9.5°
Drops below altitude 10° 13:09:45 10° 83° (E) 1,356 6.5 -9.1°
Sets 13:11:23 0° 68° (ENE) 2,090 7.8 -8.8°
